KE9DBJ Weather Reports


time (UTC)temp
F
wind
direction
speed
knots
gust
knots
rain 1hr
in
rain 24hr
in
rain mn
in
humidity
%
barometer
mb
20260509023517 59 85 2.6 4.3 0.00 0.00 0.00 76 1009.8
20260509022522 59 13 0.9 2.6 0.00 0.00 0.00 77 1009.5
20260509021540 59 0.0 0.0 0.00 0.00 0.00 78 1009.4
20260509020520 59 0.0 0.0 0.00 0.00 0.00 68 1009.4
20260509015517 59 0.0 0.0 0.00 0.00 0.00 67 1009.3
20260509014515 59 0.0 0.0 0.00 0.00 0.00 71 1009.2
20260509013525 60 0.0 0.0 0.00 0.00 0.00 66 1009.2
20260509012530 60 135 0.0 0.9 0.00 0.00 0.00 65 1009.1
20260509011516 61 0.0 0.9 0.00 0.00 0.00 61 1009.1
20260509010520 61 180 0.9 1.7 0.00 0.00 0.00 65 1009.1
20260509005524 61 180 0.0 1.7 0.00 0.00 0.00 62 1009.1
20260509004529 62 180 0.9 1.7 0.00 0.00 0.00 57 1009.1
20260509003516 62 0.0 1.7 0.00 0.00 0.00 57 1009.1
20260509002520 63 270 0.0 1.7 0.00 0.00 0.00 56 1009.0
20260509001524 63 180 0.9 1.7 0.00 0.00 0.00 54 1008.9
20260509000528 64 182 1.7 1.7 0.00 0.00 0.00 54 1008.9
20260508235552 64 174 0.9 2.6 0.00 0.00 0.00 51 1009.1
20260508234519 64 187 1.7 1.7 0.00 0.00 0.00 53 1009.0
20260508233523 65 180 0.9 1.7 0.00 0.00 0.00 52 1009.0
20260508232528 66 176 1.7 2.6 0.00 0.00 0.00 51 1009.0
20260508231532 67 141 0.9 2.6 0.00 0.00 0.00 51 1009.0
20260508230518 67 148 0.9 2.6 0.00 0.00 0.00 50 1009.1
20260508225603 68 135 1.7 4.3 0.00 0.00 0.00 46 1008.9
20260508224527 69 160 1.7 3.5 0.00 0.00 0.00 50 1008.9
20260508223531 69 191 0.9 1.7 0.00 0.00 0.00 48 1008.9
20260508222517 70 132 0.9 3.5 0.00 0.00 0.00 47 1008.7
20260508221521 70 148 1.7 3.5 0.00 0.00 0.00 47 1008.7
20260508220526 71 6 1.7 2.6 0.00 0.00 0.00 42 1008.8
20260508215530 72 88 0.9 2.6 0.00 0.00 0.00 41 1008.7
20260508214538 71 155 2.6 5.2 0.00 0.00 0.00 41 1008.7
20260508213521 72 98 1.7 3.5 0.00 0.00 0.00 42 1008.8
20260508212525 73 75 2.6 6.1 0.00 0.00 0.00 37 1008.9
20260508211529 73 198 3.5 6.1 0.00 0.00 0.00 37 1008.9
20260508210516 73 255 2.6 3.5 0.00 0.00 0.00 40 1009.0
20260508205540 74 109 2.6 4.3 0.00 0.00 0.00 38 1009.1
20260508204525 74 104 3.5 6.1 0.00 0.00 0.00 35 1009.3
20260508203603 74 278 3.5 5.2 0.00 0.00 0.00 35 1009.5
20260508202515 73 32 2.6 4.3 0.00 0.00 0.00 39 1009.8
20260508201519 71 277 2.6 6.1 0.00 0.00 0.00 42 1010.0
20260508200518 73 299 2.6 4.3 0.00 0.00 0.00 40 1010.1
20260508195536 73 29 3.5 6.1 0.00 0.00 0.00 37 1010.2
20260508194532 71 355 2.6 4.3 0.00 0.00 0.00 41 1010.3
20260508193519 71 285 2.6 5.2 0.00 0.00 0.00 43 1010.4
20260508192523 71 45 2.6 6.1 0.00 0.00 0.00 39 1010.6
20260508191527 74 19 3.5 5.2 0.00 0.00 0.00 37 1010.5
20260508190532 74 30 3.5 5.2 0.00 0.00 0.00 35 1010.5
20260508185518 76 315 3.5 7.0 0.00 0.00 0.00 35 1010.6
20260508184522 76 351 4.3 7.8 0.00 0.00 0.00 36 1010.8
20260508183527 75 84 3.5 6.1 0.00 0.00 0.00 34 1011.1
20260508182531 76 301 3.5 6.1 0.00 0.00 0.00 38 1011.3
20260508181538 74 331 3.5 7.0 0.00 0.00 0.00 39 1011.5
20260508180542 71 299 2.6 6.1 0.00 0.00 0.00 40 1011.7
20260508175526 72 306 2.6 5.2 0.00 0.00 0.00 41 1011.7
20260508174530 75 215 3.5 6.1 0.00 0.00 0.00 36 1012.0
20260508173516 73 0 3.5 8.7 0.00 0.00 0.00 39 1012.2
20260508172541 74 308 5.2 7.8 0.00 0.00 0.00 39 1012.1
20260508171525 74 311 3.5 5.2 0.00 0.00 0.00 41 1012.3
20260508170529 73 351 2.6 4.3 0.00 0.00 0.00 41 1012.5
20260508165536 73 296 2.6 4.3 0.00 0.00 0.00 42 1012.9
20260508164540 72 44 4.3 6.1 0.00 0.00 0.00 41 1013.1
20260508163524 71 10 3.5 7.0 0.00 0.00 0.00 39 1013.3
20260508162528 71 324 3.5 4.3 0.00 0.00 0.00 44 1013.5
20260508161533 70 317 4.3 5.2 0.00 0.00 0.00 43 1013.6
20260508160539 71 356 2.6 4.3 0.00 0.00 0.00 44 1013.8
20260508155523 71 309 4.3 6.1 0.00 0.00 0.00 43 1013.8
20260508154548 71 283 3.5 4.3 0.00 0.00 0.00 46 1013.8
20260508153552 70 307 3.5 4.3 0.00 0.00 0.00 43 1014.0
20260508152518 70 0 3.5 9.6 0.00 0.00 0.00 43 1014.3
20260508151543 70 27 2.6 4.3 0.00 0.00 0.00 43 1014.3
20260508150607 68 193 2.6 5.2 0.00 0.00 0.00 46 1014.3
20260508145525 68 71 2.6 5.2 0.00 0.00 0.00 45 1014.5
20260508144517 68 300 2.6 7.0 0.00 0.00 0.00 48 1014.5
20260508143522 67 334 2.6 4.3 0.00 0.00 0.00 47 1014.5
20260508142540 66 336 1.7 4.3 0.00 0.00 0.00 47 1014.7
20260508141518 64 13 2.6 3.5 0.00 0.00 0.00 52 1014.8
20260508140517 63 290 2.6 4.3 0.00 0.00 0.00 55 1014.8
20260508135637 60 307 2.6 3.5 0.00 0.00 0.00 57 1014.8
20260508134526 58 293 1.7 3.5 0.00 0.00 0.00 63 1014.8
20260508133530 55 263 1.7 4.3 0.00 0.00 0.00 74 1015.0
20260508132516 53 96 1.7 2.6 0.00 0.00 0.00 74 1015.0
20260508131521 51 253 1.7 1.7 0.00 0.00 0.00 88 1015.0
20260508130545 50 109 0.9 2.6 0.00 0.00 0.00 93 1015.0
20260508125529 48 326 0.0 1.7 0.00 0.00 0.00 99 1015.0
20260508124515 47 86 0.0 1.7 0.00 0.00 0.00 99 1015.0
20260508123520 46 26 0.9 1.7 0.00 0.00 0.00 99 1015.0
20260508122524 44 45 0.9 1.7 0.00 0.00 0.00 99 1014.9
20260508121528 43 0.0 0.0 0.00 0.00 0.00 99 1014.8
20260508120533 42 0.0 0.0 0.00 0.00 0.00 99 1014.8
20260508115519 41 45 0.9 1.7 0.00 0.00 0.00 99 1014.9
20260508114543 41 225 0.0 1.7 0.00 0.00 0.00 99 1014.7
20260508113527 40 162 0.0 1.7 0.00 0.00 0.00 99 1014.7
20260508112531 39 0.0 0.0 0.00 0.00 0.00 99 1014.6
20260508111539 39 0.0 0.0 0.00 0.00 0.00 99 1014.5
20260508110522 38 0.0 0.0 0.00 0.00 0.00 99 1014.3
20260508105526 38 0.0 0.0 0.00 0.00 0.00 99 1014.3
20260508104531 38 0.0 0.0 0.00 0.00 0.00 99 1014.3
20260508103517 38 0.0 0.0 0.00 0.00 0.00 99 1014.3
20260508102521 38 158 0.0 0.9 0.00 0.00 0.00 99 1014.3
20260508101526 38 158 0.0 1.7 0.00 0.00 0.00 99 1014.3
20260508100530 38 0.0 0.0 0.00 0.00 0.00 99 1014.3
20260508095517 39 158 0.0 0.9 0.00 0.00 0.00 99 1014.5
20260508094521 39 0.0 0.0 0.00 0.00 0.00 99 1014.5
20260508093525 38 0.0 0.0 0.00 0.00 0.00 99 1014.3
20260508092529 38 0.0 0.0 0.00 0.00 0.00 99 1014.3
20260508091516 38 0.0 0.0 0.00 0.00 0.00 99 1014.3
20260508090520 38 0.0 0.0 0.00 0.00 0.00 99 1014.3
20260508085524 38 0.0 0.0 0.00 0.00 0.00 99 1014.3
20260508084523 38 0.0 0.0 0.00 0.00 0.00 99 1014.3
20260508083521 38 0.0 0.0 0.00 0.00 0.00 99 1014.3
20260508082519 37 0.0 0.0 0.00 0.00 0.00 99 1014.3
20260508081517 37 0.0 0.0 0.00 0.00 0.00 99 1014.3
20260508080516 38 0.0 0.0 0.00 0.00 0.00 99 1014.3
20260508075613 38 0.0 0.0 0.00 0.00 0.00 99 1014.3
20260508074559 38 0.0 0.0 0.00 0.00 0.00 99 1014.3
20260508073523 38 0.0 0.0 0.00 0.00 0.00 99 1014.3
20260508072527 38 0.0 0.0 0.00 0.00 0.00 99 1014.3
20260508071532 38 0.0 0.0 0.00 0.00 0.00 99 1014.3
20260508070517 38 0.0 0.0 0.00 0.00 0.00 99 1014.3
20260508065543 38 0.0 0.0 0.00 0.00 0.00 99 1014.7
20260508064526 38 0.0 0.0 0.00 0.00 0.00 99 1014.8
20260508063611 39 0.0 0.0 0.00 0.00 0.00 99 1014.9
20260508062517 39 0.0 0.0 0.00 0.00 0.00 99 1014.9
20260508061521 39 0.0 0.0 0.00 0.00 0.00 99 1015.1
20260508060525 39 0.0 0.0 0.00 0.00 0.00 99 1015.2
20260508055530 39 0.0 0.0 0.00 0.00 0.00 99 1015.2
20260508054516 39 0.0 0.0 0.00 0.00 0.00 99 1015.0
20260508053520 40 0.0 0.0 0.00 0.00 0.00 99 1015.0
20260508052524 40 0.0 0.0 0.00 0.00 0.00 99 1015.0
20260508051529 40 0.0 0.0 0.00 0.00 0.00 99 1015.0
20260508050515 40 176 0.9 1.7 0.00 0.00 0.00 99 1015.0
20260508045519 40 211 0.9 1.7 0.00 0.00 0.00 99 1015.0
20260508044524 40 158 0.0 1.7 0.00 0.00 0.00 99 1015.0
20260508043548 40 0.0 0.0 0.00 0.00 0.00 99 1015.2
20260508042532 40 0.0 0.0 0.00 0.00 0.00 99 1015.1
20260508041518 41 0.0 0.0 0.00 0.00 0.00 99 1015.0
20260508040523 41 0.0 0.0 0.00 0.00 0.00 99 1015.0
20260508035547 41 0.0 0.0 0.00 0.00 0.00 99 1015.0
20260508034532 41 0.0 0.0 0.00 0.00 0.00 99 1015.2
20260508033518 41 0.0 0.0 0.00 0.00 0.00 98 1015.0
20260508032522 42 203 0.9 1.7 0.00 0.00 0.00 98 1015.0
20260508031527 42 0.0 0.0 0.00 0.00 0.00 97 1015.0
20260508030525 42 0.0 0.0 0.00 0.00 0.00 97 1015.0
20260508025517 42 0.0 0.0 0.00 0.00 0.00 95 1015.0
20260508024521 42 0.0 0.0 0.00 0.00 0.00 94 1014.9